Regional Weather Roundup
Issued by NWS

Home | Current Version | Previous Version | Text Only | Print | Product List | Glossary On
Versions: 1 2 3 4 5 6 7 8 9 10 11 12 13 14 15 16 17 18 19 20 21 22 23 24 25 26 27 28 29 30 31 32 33 34 35 36 37 38 39 40 41 42 43 44 45 46 47 48 49 50
456
ASUS43 KDTX 260010
RWRMI
MICHIGAN HOURLY REGIONAL WEATHER ROUNDUP
NATIONAL WEATHER SERVICE DETROIT/PONTIAC MI
800 PM EDT TUE APR 25 2017

NOTE: "FAIR" INDICATES FEW OR NO CLOUDS BELOW 12,000 FEET WITH NO
SIGNIFICANT WEATHER AND/OR OBSTRUCTION TO VISIBILITY.

MIZ047>049-052>055-059>063-066>070-074>076-081>083-260100-
SOUTHEAST LOWER MICHIGAN

CITY           SKY/WX    TMP DP  RH WIND       PRES   REMARKS
ADRIAN         CLEAR     63  53  70 E12       29.71S
6HR MIN TEMP:  63; 6HR MAX TEMP:  72;

ALMA           MOCLDY    68  55  61 SE9       29.68F
ANN ARBOR      CLOUDY    67  54  63 E9        29.71F
BAD AXE        PTCLDY    61  52  72 SE7       29.75S
6HR MIN TEMP:  60; 6HR MAX TEMP:  65;

CARO           PTCLDY    66  53  62 SE10G17   29.71F
DETROIT CITY   CLOUDY    61  53  75 E13       29.75S
6HR MIN TEMP:  61; 6HR MAX TEMP:  68;

DETROIT        MOCLDY    64  53  67 E13       29.73F
6HR MIN TEMP:  64; 6HR MAX TEMP:  71;

GROSSE ILE     PTCLDY    60  52  75 E8G17     29.72S
6HR MIN TEMP:  60; 6HR MAX TEMP:  69;

HILLSDALE      CLEAR     66  52  59 E12       29.68F
HOWELL         CLEAR     67  51  56 SE9       29.69F
6HR MIN TEMP:  65; 6HR MAX TEMP:  72;


CITY           SKY/WX    TMP DP  RH WIND       PRES   REMARKS
JACKSON        CLEAR     68  54  60 SE12      29.68F
6HR MIN TEMP:  67; 6HR MAX TEMP:  73;

LAMBERTVILLE   PTCLDY    56  52  84 E10G16    29.71F
6HR MIN TEMP:  56; 6HR MAX TEMP:  67;

LANSING        PTCLDY    70  53  54 SE10      29.67F
6HR MIN TEMP:  69; 6HR MAX TEMP:  73;

LAPEER         FAIR      65  52  64 SE9G18    29.74S
6HR MIN TEMP:  62; 6HR MAX TEMP:  70;

MASON          PTCLDY    69  55  62 SE8       29.68F
MONROE         MOCLDY    57  51  80 E10G17    29.72F
6HR MIN TEMP:  57; 6HR MAX TEMP:  66;

PONTIAC        MOCLDY    65  53  65 SE8       29.72S
6HR MIN TEMP:  64; 6HR MAX TEMP:  70;

PORT HOPE        N/A     51  49  92 SE12      29.73F
6HR MIN TEMP:  48; 6HR MAX TEMP:  57;

PORT HURON     PTCLDY    64  52  63 SE8       29.76F
TRI CITIES     CLOUDY    69  56  62 SE7       29.69F
6HR MIN TEMP:  66; 6HR MAX TEMP:  72;

MIDLAND        FAIR      65  53  63 E5        29.69F
6HR MIN TEMP:  65; 6HR MAX TEMP:  73;

TROY           PTCLDY    65  51  59 E8        29.76S
SAGINAW HB     CLOUDY    70  50  49 SE10      29.69F
$$
MIZ043>046-050>051-056>058-064>065-071>073-077>080-260100-
SOUTHWEST LOWER MICHIGAN

CITY           SKY/WX    TMP DP  RH WIND       PRES   REMARKS
BATTLE CREEK   CLEAR     71  54  54 SE6       29.65F
6HR MIN TEMP:  68; 6HR MAX TEMP:  73;

BENTON HARBOR  PTCLDY    71  53  52 SE9       29.60S
6HR MIN TEMP:  71; 6HR MAX TEMP:  76;

BIG RAPIDS     CLOUDY    67  51  57 SE7G20    29.66S
6HR MIN TEMP:  65; 6HR MAX TEMP:  71;

COLDWATER      CLEAR     70  52  52 SE10      29.64F
6HR MIN TEMP:  67; 6HR MAX TEMP:  73;

FREMONT        FAIR      69  50  50 E10       29.63S
HOLLAND        PTCLDY    70  54  56 SE8       29.62S
6HR MIN TEMP:  70; 6HR MAX TEMP:  75;

GRAND RAPIDS   CLOUDY    70  56  61 SE10      29.64S
6HR MIN TEMP:  69; 6HR MAX TEMP:  73;

IONIA          FAIR      69  54  59 E7        29.65F
6HR MIN TEMP:  68; 6HR MAX TEMP:  73;

KALAMAZOO      PTCLDY    72  52  49 SE7       29.63F
6HR MIN TEMP:  69; 6HR MAX TEMP:  75;

LUDINGTON      CLOUDY    64  55  70 CALM      29.62S
6HR MIN TEMP:  64; 6HR MAX TEMP:  71;

MARSHALL       CLEAR     71  53  53 SE7       29.64F
6HR MIN TEMP:  68; 6HR MAX TEMP:  73;

MOUNT PLEASANT MOCLDY    68  53  58 E8        29.67F
6HR MIN TEMP:  64; 6HR MAX TEMP:  71;

MUSKEGON       CLOUDY    72  53  51 SE13      29.62R
6HR MIN TEMP:  72; 6HR MAX TEMP:  76;

SOUTH HAVEN    PTCLDY    71  53  54 SE8       29.61R
$$
MIZ016>042-260100-
NORTHERN LOWER MICHIGAN

CITY           SKY/WX    TMP DP  RH WIND       PRES   REMARKS
ALPENA         CLOUDY    47  46  97 SE8       29.76S
6HR MIN TEMP:  47; 6HR MAX TEMP:  59;

BEAVER ISLAND  CLOUDY    43  40  90 E12G17    29.70S
6HR MIN TEMP:  43; 6HR MAX TEMP:  58;

BELLAIRE       CLOUDY    69  49  49 SE6       29.67R
6HR MIN TEMP:  69; 6HR MAX TEMP:  73;

CADILLAC       PTCLDY    65  52  63 SE9       29.68S
CHARLEVOIX     CLOUDY    64  47  55 E9        29.69S
6HR MIN TEMP:  53; 6HR MAX TEMP:  65;

FRANKFORT      MOCLDY    64  50  61 CALM      29.65S
GAYLORD        PTCLDY    66  48  52 S10       29.70R
6HR MIN TEMP:  66; 6HR MAX TEMP:  71;

GRAYLING       CLOUDY    65  50  59 SE8       29.71S
6HR MIN TEMP:  65; 6HR MAX TEMP:  70;

HARBOR SPRINGS PTCLDY    60  46  61 NE9       29.68S
HOUGHTON LAKE  CLOUDY    65  51  60 SE9       29.70F
6HR MIN TEMP:  64; 6HR MAX TEMP:  69;

MANISTEE       CLOUDY    69  54  58 VRB3      29.63R
OSCODA         PTCLDY    53  47  79 S7        29.74F
6HR MIN TEMP:  53; 6HR MAX TEMP:  57;

PELLSTON       CLOUDY    49  41  74 N9        29.71R
6HR MIN TEMP:  49; 6HR MAX TEMP:  72;

ROGERS CITY    CLOUDY    51  46  83 SE8       29.75R
TRAVERSE CITY  CLOUDY    61  47  59 N3        29.65R
6HR MIN TEMP:  61; 6HR MAX TEMP:  76;

$$
MIZ007>008-015-260100-
EASTERN UPPER MICHIGAN

CITY           SKY/WX    TMP DP  RH WIND       PRES   REMARKS
KINROSS        LGT RAIN  46  45  93 E21       29.76F FOG
6HR MIN TEMP:  46; 6HR MAX TEMP:  54;

MACKINAC ISLAN HVY SNOW  41  41 100 E18G29    29.74S VSB<1/4
6HR MIN TEMP:  40; 6HR MAX TEMP:  43;

NEWBERRY       CLOUDY    55  47  72 E16       29.70S
6HR MIN TEMP:  55; 6HR MAX TEMP:  67;

S. S. MARIE    CLOUDY    51  46  83 E7G20     29.77S
6HR MIN TEMP:  51; 6HR MAX TEMP:  56;

MUNISING         N/A     63  48  58 S8        29.64R
6HR MIN TEMP:  63; 6HR MAX TEMP:  68;

$$
MIZ004>006-011>014-085-260100-
CENTRAL UPPER MICHIGAN

CITY           SKY/WX    TMP DP  RH WIND       PRES   REMARKS
MANISTIQUE     CLOUDY    51  46  83 E12G17    29.68S
6HR MIN TEMP:  50; 6HR MAX TEMP:  59;

ESCANABA       CLOUDY    54  46  74 E9        29.66S
6HR MIN TEMP:  54; 6HR MAX TEMP:  59;

MENOMINEE      CLOUDY    60  51  72 S6        29.62F
6HR MIN TEMP:  59; 6HR MAX TEMP:  63;

SAWYER-GWINN   CLEAR     61  50  67 S12G17    29.65R
$$
MIZ001>003-009>011-084-260100-
WESTERN UPPER MICHIGAN

CITY           SKY/WX    TMP DP  RH WIND       PRES   REMARKS
IRON MOUNTAIN  CLOUDY    63  45  51 SE10      29.61R
6HR MIN TEMP:  63; 6HR MAX TEMP:  74;

HOUGHTON       CLOUDY    47  38  71 N14       29.60R
6HR MIN TEMP:  47; 6HR MAX TEMP:  67;

COPPER HARBOR    N/A     40  37  89 N7        29.66R
6HR MIN TEMP:  40; 6HR MAX TEMP:  53;

$$

ABBREVIATIONS USED IN REMARKS
   TC - TEMPERATURE IN CELSIUS
  WCI - WIND CHILL INDEX
   HX - HEAT INDEX
  VSB - VISIBILITY





USA.gov is the U.S. government's official web portal to all federal, state and local government web resources and services.